COSMOS 2251 DEB, 47061

Orbit data source: Space-Track

COSMOS 2251 DEB, 47061 is space debris in LEO originally from a launch on Wed, 16 Jun 1993 UTC launched from the Plesetsk Missile And Space Complex (PKMTR). The debris from Iridium 33, an American commercial communications satellite, has been tracked extensively since its accidental collision with the defunct Russian satellite Cosmos 2251 in 2009. This event, occurring at high speed in low Earth orbit (LEO), generated thousands of pieces of space debris, significantly increasing the risk of further collisions. The Iridium 33 debris cloud has impacted space traffic management and orbital debris mitigation strategies, making it a subject of ongoing study in space situational awareness.

Loading next visibility...
Identifier
47061, 1993-036BXR
Orbit
LEO
Country
Flag of CISCIS
Related business
Manufacturer
Unknown
Mission
Spacecraft
Bus & Motor
Unknown
Mass
Unknown
Launch date (UTC)
1993-06-16 (33 years ago)
Launch vehicle
Unknown
Launch site
Plesetsk Missile And Space Complex (PKMTR)
Object type
Payload
Rocket body
Debris
Shape & HBR
Unknown shape, 0.1 m
Radar Cross Section
Small (<0.1 m²)

Expand to show TLE details & history
Last TLE update: 5 months ago

TLE from 5 months ago
0 COSMOS 2251 DEB
1 47061U 93036BXR 25262.30214197  .00034857  00000-0  23304-2 0  9994
2 47061  74.0038   9.5788 0024082 261.8819 129.6497 15.06570301630960
Epoch: 2025-09-19T07:15Z
TLE epoch observation values (Epoch: 2025-09-19T07:15:05.066Z)
Latitude
30.4428°
Longitude
-87.99784°
Altitude
560.928 km
Speed
7.578 km/s
True Right ascension
01h 16m 53s
True Declination
30° 17' 19"
Sunlit
Object was in full shadow at epoch
Visualization orbit readout
Latitude
Unknown
Longitude
Unknown
Altitude
Unknown
Speed
Unknown
Apparent Right ascension
Unknown
Apparent Declination
Unknown
Sunlit
N/A
Visualization observer readout
Local Sidereal Time
00:20:17
Azimuth
Unknown
Elevation
Unknown
Doppler factor
Unknown
Orbital elements
Apogee altitude
560.909 km
Perigee altitude
527.569 km
Semi-major axis
6,922.376 km
Eccentricity
0.00241
Inclination
74.0038°
RAAN
9.5788°
Arg. of periapsis
261.8819°
True anomaly
129.86177°
Mean anomaly
129.6497°
Eccentric anomaly
129.75578°
Mean motion
3.76843 °/min
Orbital period
95.53 mins
BSTAR
0.0023304
Loading maneuver chart data...
Computing Atmospheric mass density...

Documentation

Showing up to 5 results
|